Date,TemperatureHighF,TemperatureAvgF,TemperatureLowF,DewpointHighF,DewpointAvgF,DewpointLowF,HumidityHigh,HumidityAvg,HumidityLow,PressureMaxIn,PressureMinIn,WindSpeedMaxMPH,WindSpeedAvgMPH,GustSpeedMaxMPH,PrecipitationSumIn
2014-1-1,80,74,71,72,69,63,96,83,72,30.20,30.04,12,9,41,0.00
2014-1-2,83,75,68,71,68,67,98,81,58,30.04,29.86,17,8,45,0.00
2014-1-3,71,63,56,70,55,44,97,76,57,30.18,29.89,18,12,28,0.00
2014-1-4,72,66,56,68,59,-100,95,80,68,30.17,30.06,10,6,18,0.00
2014-1-5,79,72,68,73,69,66,97,89,75,30.07,29.94,14,5,33,0.00
2014-1-6,82,71,57,70,65,37,99,82,50,30.19,29.96,20,8,53,0.00
2014-1-7,56,52,47,49,42,31,86,69,46,30.30,30.19,18,14,30,0.00
2014-1-8,70,61,50,64,59,46,98,93,82,30.30,30.20,14,10,28,0.00
2014-1-9,73,71,67,72,68,64,98,91,82,30.24,30.15,15,10,44,0.00
2014-1-10,80,74,67,72,70,67,99,89,74,30.18,30.07,14,8,46,0.00
2014-1-11,83,76,68,73,71,68,98,85,65,30.12,29.97,14,7,21,0.00
2014-1-13,81,76,68,70,68,66,97,79,64,30.16,30.05,10,7,18,0.00
2014-1-14,81,72,66,72,68,66,99,87,66,30.05,29.94,32,8,51,0.00
2014-1-15,68,64,58,66,58,52,98,82,59,30.03,29.95,12,7,20,0.00
2014-1-16,58,55,47,56,45,31,92,71,38,30.15,29.95,17,10,28,0.00
2014-1-17,64,52,42,46,41,34,86,67,39,30.22,30.10,8,5,12,0.00
2014-1-18,65,54,47,49,34,-100,94,70,38,30.24,30.14,14,6,23,0.00
2014-1-19,68,54,40,53,39,-100,94,66,32,30.27,30.14,11,5,18,0.00
2014-1-20,74,62,52,60,54,49,96,78,52,30.19,30.03,9,5,15,0.00
2014-1-21,70,63,58,62,59,57,96,88,67,30.06,29.88,15,8,25,0.00
2014-1-22,61,55,47,60,44,35,97,68,41,30.16,29.89,61,12,66,0.00
2014-1-23,70,54,41,54,46,37,90,76,56,30.28,30.15,61,8,66,0.00
2014-1-24,68,59,52,54,51,50,94,77,56,30.38,30.23,16,10,47,0.00
2014-1-25,75,60,50,60,52,-100,97,79,54,30.23,30.04,8,4,13,0.00
2014-1-26,78,66,54,63,57,52,98,76,41,30.09,29.97,10,4,49,0.00
2014-1-27,82,70,58,65,63,57,98,79,52,30.03,29.93,16,6,50,0.00
2014-1-28,83,70,58,69,65,58,99,84,55,30.08,29.96,10,5,38,0.00
2014-1-29,72,66,62,71,65,61,99,96,87,30.08,29.98,14,7,22,0.00
2014-1-30,67,64,60,65,63,60,99,98,91,30.11,30.02,15,7,33,0.00
2014-1-31,82,74,64,73,70,64,100,90,71,30.09,30.01,9,6,48,0.00
2014-2-1,83,73,67,73,68,-100,99,87,64,30.14,30.05,12,6,18,0.00
2014-2-2,81,74,67,71,69,67,99,86,64,30.16,30.07,41,9,56,0.00
2014-2-3,83,76,71,72,71,70,97,84,67,30.12,30.03,11,7,17,0.00
2014-2-4,82,76,71,72,70,69,97,82,68,30.15,30.06,13,8,22,0.00
2014-2-5,83,76,71,73,71,69,96,86,63,30.11,30.01,11,7,17,0.00
2014-2-6,82,75,71,72,47,-100,99,87,68,30.13,30.03,10,4,17,0.00
2014-2-7,82,72,65,70,39,-100,99,88,65,30.15,30.06,10,5,14,0.00
2014-2-8,83,73,67,73,61,-100,100,88,61,30.11,30.00,14,6,21,0.00
2014-2-9,77,68,63,67,36,-100,99,87,69,30.10,30.00,14,7,21,0.00
2014-2-10,80,69,62,66,63,61,98,83,60,30.09,30.00,10,6,15,0.00
2014-2-11,84,73,65,69,66,61,97,80,46,30.08,29.98,10,5,59,0.00
2014-2-12,82,72,63,70,51,-100,98,85,60,30.05,29.82,17,8,26,0.00
2014-2-13,71,66,57,67,27,-100,98,80,58,29.97,29.75,20,12,32,0.00
2014-2-14,70,59,47,53,47,40,91,67,37,30.08,29.96,10,6,16,0.00
2014-2-15,77,64,56,61,53,-100,94,72,49,30.12,29.96,17,9,26,0.00
2014-2-16,77,62,50,58,52,47,91,72,38,30.18,30.09,10,5,15,0.00
2014-2-17,77,65,56,60,57,54,96,77,54,30.21,30.13,10,5,17,0.00
2014-2-18,79,68,57,65,60,57,98,78,50,30.23,30.15,41,8,51,0.00
2014-2-19,80,68,60,65,62,59,98,84,57,30.18,30.07,10,4,18,0.00
2014-2-20,81,72,62,70,67,62,98,83,60,30.17,30.07,12,7,19,0.00
2014-2-21,84,77,72,72,68,-100,93,81,65,30.10,30.01,16,9,26,0.00
2014-2-22,87,74,68,72,50,-100,99,83,55,30.11,29.98,12,5,18,0.00
2014-2-23,83,75,68,73,52,-100,99,86,65,30.08,29.98,11,5,45,0.00
2014-2-24,84,76,68,72,51,-100,99,80,57,30.03,29.95,9,5,17,0.00
2014-2-25,82,73,68,70,51,-100,99,87,56,30.03,29.92,11,5,35,0.00
2014-2-26,83,74,65,70,33,-100,99,80,52,29.97,29.75,28,9,60,0.00
2014-2-27,76,71,63,70,65,61,96,82,62,29.93,29.75,11,8,19,0.00
2014-2-28,71,64,59,63,59,55,98,85,60,30.08,29.89,11,6,18,0.00
2014-3-1,78,63,57,64,59,57,98,88,58,30.16,30.04,46,13,49,0.00
2014-3-2,79,74,66,64,62,60,89,66,53,30.17,30.08,12,6,19,0.00
2014-3-3,83,72,61,65,62,56,98,73,40,30.08,29.96,40,5,47,0.00
2014-3-4,81,71,62,67,64,61,98,80,54,30.06,29.96,40,9,58,0.00
2014-3-5,84,73,64,70,67,63,99,82,55,30.03,29.91,13,6,20,0.00
2014-3-6,83,71,66,72,68,65,99,89,58,29.99,29.77,18,7,27,0.00
2014-3-7,76,69,59,67,62,54,98,78,52,30.02,29.78,21,11,36,0.00
2014-3-8,75,62,53,61,52,-100,97,74,50,30.13,30.01,10,6,18,0.00
2014-3-9,78,70,60,65,62,59,99,79,54,30.16,30.07,8,5,13,0.00
2014-3-10,81,70,63,66,62,60,98,80,48,30.12,29.96,44,6,56,0.00
2014-3-11,81,71,60,67,63,60,97,77,53,30.02,29.85,76,8,76,0.00
2014-3-12,84,75,67,71,67,66,96,78,55,29.89,29.74,25,10,49,0.00
2014-3-13,73,68,55,69,57,45,88,69,44,30.15,29.84,15,10,26,0.00
2014-3-14,72,63,54,59,53,49,90,69,50,30.24,30.13,15,8,25,0.00
2014-3-15,80,69,58,63,59,56,98,74,46,30.17,30.03,11,5,19,0.00
2014-3-16,81,71,63,66,60,-100,93,74,54,30.05,29.81,19,9,27,0.00
2014-3-17,85,76,71,71,66,-100,92,74,57,29.83,29.72,21,11,31,0.00
2014-3-18,77,71,65,72,64,59,98,78,54,30.00,29.67,21,11,34,0.00
2014-3-19,79,68,61,66,62,60,97,83,61,30.06,29.96,10,4,17,0.00
2014-3-20,81,71,64,70,64,-100,98,83,65,30.04,29.94,12,5,19,0.00
2014-3-21,82,71,62,69,64,-100,99,83,62,30.05,29.95,13,6,22,0.00
2014-3-22,82,76,71,73,69,66,91,80,66,30.07,29.96,12,8,42,0.00
2014-3-23,86,75,67,72,65,-100,97,74,53,30.05,29.92,50,8,86,0.00
2014-3-24,74,71,65,70,67,64,98,89,72,30.04,29.90,32,7,62,0.00
2014-3-25,76,69,64,69,65,55,99,86,71,29.99,29.83,16,9,26,0.00
2014-3-26,68,61,54,55,47,41,74,61,52,30.23,29.99,18,12,23,0.00
2014-3-27,73,71,67,60,58,55,71,64,54,30.29,30.23,13,10,24,0.00
2014-3-28,80,76,71,68,65,61,82,69,59,30.16,30.05,36,12,67,0.00
2014-3-29,82,75,68,73,71,65,94,85,74,30.08,29.90,16,10,34,0.00
2014-3-30,75,68,62,67,46,-100,96,74,39,30.05,29.90,65,20,70,0.00
2014-3-31,79,66,56,65,58,53,93,77,51,30.13,30.05,45,6,58,0.00
2014-4-1,79,68,60,63,59,-100,98,77,54,30.16,30.09,9,5,17,0.00
2014-4-2,79,70,59,65,61,59,98,74,52,30.18,30.11,12,6,41,0.00
2014-4-3,81,72,62,66,64,61,96,76,59,30.16,30.06,37,9,45,0.00
2014-4-4,83,74,65,67,65,63,97,75,52,30.08,29.99,12,6,20,0.00
2014-4-5,84,75,65,69,66,64,98,76,52,30.05,29.96,20,4,47,0.00
2014-4-6,86,74,66,70,64,-100,99,76,43,30.03,29.92,20,8,57,0.00
2014-4-7,87,79,72,74,71,67,93,77,58,29.98,29.85,16,10,25,0.00
2014-4-8,88,77,67,75,71,63,96,83,59,29.92,29.73,24,12,37,0.00
2014-4-9,75,69,63,65,58,52,91,71,45,30.14,29.87,17,10,38,0.00
2014-4-10,78,68,59,59,56,51,91,67,41,30.25,30.13,14,7,27,0.00
2014-4-11,79,68,60,68,63,57,97,86,59,30.23,30.12,13,4,21,0.00
2014-4-14,84,78,75,73,72,72,92,82,68,29.92,29.89,13,9,21,0.00
2014-4-15,87,78,70,74,72,70,98,84,59,29.92,29.81,14,7,20,0.00
2014-4-16,79,73,69,73,69,65,98,87,68,30.06,29.91,20,9,50,0.00
2014-4-17,82,75,72,73,71,69,95,86,71,30.13,30.03,26,9,48,0.00
2014-4-18,83,77,71,72,71,69,98,82,66,30.09,29.94,15,9,25,0.00
2014-4-19,86,77,69,73,70,62,97,79,58,29.97,29.86,16,9,27,0.00
2014-4-20,76,68,64,64,59,-100,91,75,65,30.03,29.93,51,12,57,0.00
2014-4-21,80,68,60,66,62,59,97,82,60,30.03,29.91,33,8,95,0.00
2014-4-22,83,74,65,69,66,64,96,77,55,29.96,29.84,7,4,31,0.00
2014-4-23,83,74,64,69,66,64,97,77,51,29.95,29.86,9,5,14,0.00
2014-4-24,85,76,64,70,67,63,96,75,51,30.00,29.92,10,6,44,0.00
2014-4-25,88,77,67,71,67,63,97,73,44,30.01,29.90,9,5,15,0.00
2014-4-28,88,82,78,73,70,67,86,69,51,29.92,29.88,11,8,18,0.00
2014-4-29,88,81,74,75,73,71,96,77,58,30.01,29.87,17,9,30,0.00
2014-4-30,89,81,74,75,74,72,96,80,57,30.05,29.94,14,8,24,0.00
2014-5-1,89,80,74,75,73,70,95,81,59,30.04,29.92,48,9,55,0.00
2014-5-2,89,80,73,75,72,69,98,79,52,29.98,29.84,48,8,55,0.00
2014-5-3,84,75,72,75,72,70,97,90,67,29.98,29.89,15,5,23,0.00
2014-5-4,84,73,67,72,62,-100,98,72,40,30.04,29.95,45,9,58,0.00
2014-5-5,86,74,63,68,65,62,98,75,44,30.05,29.96,43,13,59,0.00
2014-5-6,85,75,62,69,66,62,98,76,50,30.03,29.97,10,5,16,0.00
2014-5-7,75,75,75,66,66,66,71,71,71,30.02,30.02,5,5,9,0.00
2014-5-13,80,79,78,74,73,72,83,81,79,30.03,29.99,13,11,23,0.00
2014-5-14,85,79,73,75,73,69,95,79,64,30.04,29.95,15,10,29,0.00
2014-5-15,82,76,72,77,74,71,97,92,79,30.02,29.92,12,7,31,0.00
2014-5-16,75,74,71,71,68,59,87,79,65,30.03,29.99,12,11,18,0.00
2014-5-20,74,74,73,64,63,63,73,70,68,30.14,30.13,7,6,11,0.00
2014-5-21,82,75,65,66,64,62,96,68,54,30.16,30.10,12,7,21,0.00
2014-5-22,87,76,65,67,61,-100,96,65,48,30.14,30.04,8,5,15,0.00
2014-5-23,92,78,66,71,68,65,98,76,43,30.09,29.99,10,4,15,0.00
2014-5-24,92,80,70,73,71,69,97,76,49,30.07,29.99,11,5,17,0.00
2014-5-25,88,77,70,74,68,-100,98,77,50,30.11,30.01,11,5,19,0.00
2014-5-26,87,79,69,74,71,69,99,78,57,30.15,30.06,13,6,45,0.00
2014-5-27,87,79,71,74,71,70,97,79,57,30.13,30.03,12,6,18,0.00
2014-5-28,87,77,70,75,72,69,98,83,61,30.07,29.97,11,6,17,0.00
2014-5-29,84,76,72,76,72,70,97,88,72,30.03,29.95,12,6,23,0.00
2014-5-30,86,78,71,74,72,69,97,85,63,30.02,29.96,11,5,17,0.00
2014-5-31,84,78,72,74,73,71,98,85,67,30.02,29.95,10,5,17,0.00
2014-6-1,85,77,73,75,68,-100,97,79,67,30.03,29.96,14,7,23,0.00
2014-6-2,79,77,73,73,72,68,97,85,73,30.08,29.98,14,10,23,0.00
2014-6-3,81,77,73,68,66,63,79,68,57,30.06,29.98,11,8,18,0.00
2014-6-4,83,77,68,70,69,68,97,77,63,29.98,29.91,10,6,16,0.00
2014-6-5,86,78,67,71,69,66,98,74,55,29.97,29.89,11,5,17,0.00
2014-6-6,90,77,67,72,69,67,98,78,51,29.97,29.90,11,5,19,0.00
2014-6-7,92,82,73,75,73,71,99,75,50,29.99,29.92,9,5,15,0.00
2014-6-8,88,75,72,74,67,-100,97,83,57,29.99,29.91,17,5,28,0.00
2014-6-9,88,77,70,76,72,70,99,87,61,30.01,29.88,7,4,13,0.00
2014-6-10,82,74,69,75,72,68,98,93,79,30.02,29.96,14,3,26,0.00
2014-6-11,90,78,71,76,73,71,99,85,60,30.02,29.94,7,4,15,0.00
2014-6-12,91,76,70,73,71,69,99,86,49,30.03,29.95,18,7,37,0.00
2014-6-13,88,75,69,76,71,68,99,89,60,30.04,29.97,16,6,33,0.00
2014-6-14,88,78,70,77,73,70,99,87,64,30.10,30.01,12,5,17,0.00
2014-6-15,86,78,74,79,71,-100,94,86,72,30.13,30.02,10,6,16,0.00
2014-6-16,86,80,73,77,72,69,99,78,55,30.15,30.07,12,6,19,0.00
2014-6-17,82,76,73,75,72,70,98,89,74,30.15,30.06,9,5,25,0.00
2014-6-18,84,76,71,75,73,70,99,89,73,30.11,30.05,14,6,29,0.00
2014-6-19,86,75,72,75,73,71,99,92,70,30.12,30.05,9,3,18,0.00
2014-6-20,90,76,71,74,71,70,99,87,54,30.10,30.03,12,4,20,0.00
2014-6-23,91,86,79,76,74,72,89,69,52,30.11,30.01,9,6,15,0.00
2014-6-24,92,81,76,77,75,70,96,83,48,30.16,30.08,9,4,14,0.00
2014-6-25,91,82,76,78,76,74,97,84,59,30.14,30.05,9,3,18,0.00
2014-6-26,90,80,73,77,74,72,98,83,55,30.12,30.01,10,4,16,0.00
2014-6-27,88,82,76,78,76,70,98,84,66,30.11,30.02,11,4,16,0.00
2014-6-29,90,81,76,77,74,72,98,82,59,30.12,30.02,12,6,19,0.00
2014-6-30,88,79,73,77,75,73,98,86,64,30.02,29.90,11,7,17,0.00
2014-7-1,85,80,77,76,75,73,93,83,64,29.93,29.82,13,8,32,0.00
2014-7-2,90,80,76,75,73,72,94,80,55,29.94,29.85,12,8,19,0.00
2014-7-3,94,84,77,76,74,70,95,76,49,30.08,29.98,16,8,23,0.00
2014-7-4,90,80,75,77,74,71,94,84,58,30.13,30.08,13,5,27,0.00
2014-7-5,89,79,75,77,74,73,94,85,62,30.14,30.06,8,4,16,0.00
2014-7-6,84,73,74,76,65,-100,95,84,75,30.11,30.02,9,5,15,0.00
2014-7-7,85,77,74,75,74,73,97,90,68,30.10,30.02,9,3,17,0.00
2014-7-8,91,81,75,77,75,73,94,81,58,30.14,30.07,12,6,21,0.00
2014-7-9,90,78,74,77,74,71,97,86,58,30.13,30.08,12,4,19,0.00
2014-7-10,86,77,74,76,74,72,96,89,67,30.13,30.06,9,3,24,0.00
2014-7-11,88,82,74,77,74,73,97,79,62,30.14,30.06,10,6,17,0.00
2014-7-12,89,83,77,76,75,74,93,77,62,30.13,30.06,10,6,19,0.00
2014-7-13,89,83,78,76,74,72,88,75,55,30.09,30.04,9,6,18,0.00
2014-7-14,87,82,74,77,75,69,96,80,66,30.09,30.02,13,4,20,0.00
2014-7-15,88,78,72,77,74,69,96,88,59,30.04,29.97,33,6,56,0.00
2014-7-16,89,79,76,75,74,73,95,85,61,30.01,29.95,11,6,20,0.00
2014-7-17,84,78,73,77,75,72,97,89,76,30.04,29.96,7,4,11,0.00
2014-7-18,92,83,77,77,74,71,97,77,49,30.10,30.00,10,5,15,0.00
2014-7-19,91,83,76,77,75,70,96,79,53,30.10,30.01,10,3,22,0.00
2014-7-20,91,81,77,77,74,72,96,77,55,30.08,29.99,10,4,15,0.00
2014-7-21,89,80,76,78,76,74,95,87,59,30.06,29.99,12,4,19,0.00
2014-7-22,89,81,76,78,76,74,96,86,65,30.07,29.99,105,7,150,0.00
2014-7-23,88,81,77,78,77,74,97,86,72,30.10,30.02,22,5,43,0.00
2014-7-28,94,86,80,79,75,68,94,71,43,30.08,29.98,9,6,69,0.00
2014-7-29,91,84,80,78,76,73,93,79,54,30.02,29.95,9,6,31,0.00
2014-7-30,91,82,78,78,76,73,95,82,56,29.99,29.93,10,5,32,0.00
2014-7-31,90,75,78,77,67,74,94,86,59,29.99,29.93,13,5,21,0.00
2014-8-1,91,83,77,78,76,75,95,81,61,29.99,29.92,9,4,36,0.00
2014-8-2,90,82,77,78,77,75,97,83,63,29.98,29.88,7,4,12,0.00
2014-8-3,85,79,73,78,76,72,96,90,74,29.94,29.86,12,5,20,0.00
2014-8-4,87,78,74,76,74,71,96,88,69,29.99,29.87,12,6,25,0.00
2014-8-5,89,82,76,77,75,74,95,81,62,30.07,29.96,10,6,25,0.00
2014-8-6,92,83,77,78,76,72,96,81,53,30.06,29.98,10,4,44,0.00
2014-8-7,92,75,73,78,67,70,94,68,54,30.02,29.58,17,5,28,0.00
2014-8-8,91,82,75,78,76,73,97,80,57,30.05,29.97,11,4,20,0.00
2014-8-9,93,84,78,78,76,72,96,78,50,30.08,29.99,9,4,13,0.00
2014-8-10,94,85,77,78,75,68,96,73,43,30.07,29.98,9,3,13,0.00
2014-8-11,91,85,77,77,74,71,95,70,53,30.06,29.97,10,4,15,0.00
2014-8-12,91,85,79,77,75,72,93,72,54,30.03,29.96,10,5,15,0.00
2014-8-13,92,83,78,77,76,72,95,78,52,30.03,29.95,11,4,16,0.00
2014-8-14,92,81,77,79,77,73,96,86,58,30.04,29.96,12,3,18,0.00
2014-8-15,90,79,74,78,76,72,97,90,65,30.05,29.96,6,4,10,0.00
2014-8-16,91,80,74,78,75,73,98,86,55,30.11,30.00,8,3,15,0.00
2014-8-17,90,81,75,79,76,74,98,87,64,30.11,30.05,9,3,13,0.00
2014-8-18,93,84,76,78,76,72,98,79,51,30.09,29.99,7,2,10,0.00
2014-8-19,93,85,78,79,76,74,98,77,54,30.05,29.96,8,4,14,0.00
2014-8-20,93,84,79,79,77,75,95,79,54,30.09,29.99,7,3,11,0.00
2014-8-21,89,83,78,78,77,76,98,83,65,30.12,30.04,8,3,12,0.00
2014-8-22,90,84,77,79,77,75,97,80,62,30.11,29.98,7,3,10,0.00
2014-8-23,90,84,77,78,76,75,97,79,60,30.01,29.86,8,4,14,0.00
2014-8-24,93,82,77,78,73,73,96,72,50,29.89,29.73,9,5,15,0.00
2014-8-26,89,83,78,75,73,71,85,71,56,29.89,29.77,16,9,22,0.00
2014-8-27,91,82,74,75,74,71,95,76,58,29.97,29.87,10,6,17,0.00
2014-8-28,88,80,76,78,76,72,94,86,68,30.02,29.93,11,4,22,0.00
2014-8-29,91,81,76,78,76,72,97,83,56,30.08,29.98,10,4,15,0.00
2014-8-30,90,84,79,79,77,76,96,80,64,30.10,30.03,11,6,16,0.00
2014-8-31,89,81,77,77,73,72,91,74,61,30.10,30.04,11,6,17,0.00
2014-9-1,89,84,79,77,76,74,91,76,61,30.09,30.02,10,6,15,0.00
2014-9-2,87,81,76,77,74,72,95,81,62,30.08,29.97,12,5,17,0.00
2014-9-3,87,80,74,76,74,71,96,81,60,30.04,29.95,11,5,17,0.00
2014-9-4,86,78,74,77,74,72,97,89,68,30.11,30.01,10,3,15,0.00
2014-9-8,89,81,74,76,74,72,96,80,58,30.06,29.98,11,5,17,0.00
2014-9-9,88,82,75,77,74,71,97,78,58,30.06,29.97,10,5,16,0.00
2014-9-10,87,82,77,76,74,73,96,78,62,30.01,29.94,12,6,18,0.00
2014-9-11,83,78,75,77,75,74,98,90,73,30.01,29.94,10,3,15,0.00
2014-9-12,86,79,72,75,73,71,98,83,62,30.02,29.89,14,9,22,0.00
2014-9-13,86,79,73,76,74,70,97,84,66,30.10,29.99,15,6,27,0.00
2014-9-14,89,78,73,75,71,70,96,79,54,30.16,30.05,11,5,16,0.00
2014-9-15,88,80,73,77,74,71,96,80,60,30.17,30.09,9,4,15,0.00
2014-9-16,88,80,77,77,75,73,97,87,62,30.14,29.99,8,2,14,0.00
2014-9-17,88,79,75,75,73,71,98,81,57,30.03,29.90,15,4,21,0.00
2014-9-18,88,80,76,76,74,73,95,82,61,29.96,29.88,10,4,15,0.00
2014-9-19,87,78,75,77,75,71,97,92,64,29.97,29.90,10,2,14,0.00
2014-9-20,86,79,75,76,74,73,96,85,66,29.98,29.89,12,5,18,0.00
2014-9-21,88,77,73,75,73,72,96,85,58,30.06,29.95,10,4,17,0.00
2014-9-22,86,78,74,78,74,72,97,88,71,30.08,29.97,8,3,11,0.00
2014-9-23,83,78,74,76,73,71,97,85,69,30.06,29.96,16,5,25,0.00
2014-9-24,86,79,73,77,74,72,97,85,66,30.08,29.98,10,4,17,0.00
2014-9-25,87,79,76,79,76,74,97,89,73,30.07,29.99,10,4,17,0.00
2014-9-26,87,79,74,78,76,73,98,88,68,30.03,29.94,12,5,19,0.00
2014-9-27,87,81,78,77,76,73,95,83,67,30.02,29.93,11,6,18,0.00
2014-9-28,87,79,76,78,74,74,96,84,67,30.02,29.92,10,5,15,0.00
2014-9-29,89,81,75,76,75,72,97,83,62,29.98,29.83,15,5,25,0.00
2014-9-30,86,79,75,78,76,73,97,88,69,29.90,29.83,12,5,26,0.00
2014-10-1,89,81,76,78,76,74,98,85,64,29.99,29.87,13,4,23,0.00
2014-10-2,90,82,77,77,75,73,95,80,55,30.06,29.95,9,5,15,0.00
2014-10-3,92,82,74,78,75,72,97,82,55,30.06,29.94,10,4,22,0.00
2014-10-4,88,81,76,77,75,72,98,83,59,30.02,29.83,14,7,21,0.00
2014-10-5,83,74,67,72,64,61,85,69,53,30.01,29.90,13,8,17,0.00
2014-10-6,82,76,70,70,68,66,90,75,61,30.08,29.98,12,7,18,0.00
2014-10-7,84,78,73,74,72,70,94,82,67,30.11,30.02,10,4,15,0.00
2014-10-8,85,80,75,76,73,69,97,81,66,30.13,30.04,10,5,15,0.00
2014-10-9,86,80,73,74,72,69,93,76,58,30.09,30.00,13,6,19,0.00
2014-10-10,86,80,74,73,72,70,95,76,59,30.05,29.96,13,7,20,0.00
2014-10-11,86,80,74,73,71,69,95,74,56,30.02,29.95,11,6,16,0.00
2014-10-12,86,79,74,74,72,71,92,77,64,30.05,29.98,11,6,17,0.00
2014-10-13,85,82,77,75,72,71,83,73,63,30.07,30.01,14,9,21,0.00
2014-10-14,87,82,78,77,74,71,92,79,66,30.03,29.92,14,7,19,0.00
2014-10-15,88,79,74,77,75,72,97,88,59,30.00,29.88,10,4,17,0.00
2014-10-16,82,76,70,76,67,62,97,73,53,29.97,29.86,13,7,18,0.00
2014-10-17,83,74,66,69,61,56,89,67,40,29.98,29.89,9,5,13,0.00
2014-10-18,85,74,67,70,65,61,96,76,44,29.98,29.89,5,3,10,0.00
2014-10-19,85,74,67,71,66,64,97,76,52,30.01,29.93,9,4,16,0.00
2014-10-20,85,78,69,73,68,63,96,72,48,30.02,29.92,7,4,13,0.00
2014-10-21,81,75,70,74,72,69,97,90,74,29.96,29.89,13,4,20,0.00
2014-10-22,84,76,71,74,71,70,98,87,62,29.97,29.89,7,2,9,0.00
2014-10-23,77,74,71,72,69,66,97,85,70,29.95,29.87,12,6,18,0.00
2014-10-24,79,76,71,69,68,66,86,75,70,29.92,29.82,15,10,22,0.00
2014-10-25,82,73,66,67,64,62,91,76,54,29.94,29.85,11,7,16,0.00
2014-10-26,82,72,66,66,62,57,91,74,42,30.02,29.89,9,6,15,0.00
2014-10-27,81,73,65,69,65,62,93,77,55,30.09,29.99,10,4,16,0.00
2014-10-28,83,75,68,69,67,65,94,78,56,30.14,30.07,11,5,17,0.00
2014-10-29,86,77,70,71,68,65,96,74,51,30.11,29.97,8,3,13,0.00
2014-10-30,84,75,69,71,68,64,98,82,50,29.99,29.85,7,3,11,0.00
2014-10-31,82,74,69,71,68,56,96,80,61,29.88,29.75,12,6,18,0.00
2014-11-1,74,65,56,60,53,42,94,66,45,30.13,29.88,18,10,25,0.00
2014-11-2,68,58,51,53,45,40,79,62,39,30.25,30.13,12,9,18,0.00
2014-11-3,75,68,56,58,54,46,76,62,52,30.28,30.20,13,9,21,0.00
2014-11-4,77,73,68,61,58,55,68,59,46,30.24,30.14,15,9,24,0.00
2014-11-5,79,75,72,67,65,62,82,70,62,30.16,30.07,15,9,25,0.00
2014-11-6,82,74,65,67,64,60,96,75,48,30.11,29.96,8,4,13,0.00
2014-11-7,80,70,66,67,65,61,96,84,52,29.97,29.88,8,4,11,0.00
2014-11-8,79,69,65,69,65,64,96,86,68,29.93,29.81,10,4,13,0.00
2014-11-9,70,67,65,69,66,64,98,96,93,29.89,29.81,10,4,14,0.00
2014-11-10,75,68,64,66,65,63,98,88,69,29.93,29.86,10,6,15,0.00
2014-11-11,78,68,61,65,60,56,95,77,51,29.93,29.86,13,7,19,0.00
2014-11-12,81,68,63,66,59,57,96,75,55,30.02,29.93,11,7,16,0.00
2014-11-13,83,71,64,68,65,63,97,85,51,30.03,29.93,7,4,10,0.00
2014-11-14,80,71,65,66,63,55,98,79,42,30.09,29.95,9,5,13,0.00
2014-11-15,80,68,62,67,63,61,95,80,62,30.17,30.07,9,6,14,0.00
2014-11-16,81,74,67,70,67,63,96,80,67,30.17,30.05,10,6,16,0.00
2014-11-17,86,78,72,75,73,68,97,83,64,30.05,29.90,14,7,19,0.00
2014-11-18,73,66,56,69,63,53,96,90,80,30.19,29.94,15,8,20,0.00
2014-11-19,65,58,53,60,55,51,94,87,80,30.23,30.15,11,9,15,0.00
2014-11-20,76,69,60,61,59,57,91,73,58,30.19,30.09,13,9,21,0.00
2014-11-21,72,69,67,68,65,60,95,85,67,30.20,30.11,14,10,23,0.00
2014-11-22,77,73,70,72,67,65,94,80,74,30.19,30.07,16,13,23,0.00
2014-11-23,81,78,75,75,73,72,92,84,75,30.07,29.91,15,10,20,0.00
2014-11-24,87,80,73,77,75,73,97,86,65,30.04,29.93,10,6,14,0.00
2014-11-25,84,79,76,76,74,73,97,85,69,30.05,29.92,16,9,23,0.00
2014-11-26,78,69,57,75,65,50,94,86,68,30.20,29.91,16,10,23,0.00
2014-11-27,72,62,54,57,50,43,91,68,40,30.28,30.15,14,8,20,0.00
2014-11-28,68,58,51,54,49,45,82,71,58,30.25,30.17,15,10,21,0.00
2014-11-29,74,63,54,57,53,51,92,70,53,30.26,30.18,12,8,19,0.00
2014-11-30,76,70,60,62,58,54,86,65,53,30.28,30.21,14,8,24,0.00
2014-12-1,78,72,66,68,64,61,95,75,63,30.27,30.17,18,10,27,0.00
2014-12-2,78,74,71,68,66,65,85,77,68,30.19,30.09,15,10,24,0.00
2014-12-3,80,73,68,67,66,65,95,80,63,30.14,30.06,14,8,21,0.00
2014-12-4,80,73,67,70,68,66,97,82,68,30.15,30.07,14,8,21,0.00
2014-12-5,80,75,71,70,69,67,92,81,69,30.19,30.10,13,8,20,0.00
2014-12-6,79,71,67,67,65,64,94,79,61,30.19,30.09,8,5,14,0.00
2014-12-7,74,68,63,67,65,61,97,89,75,30.09,30.00,12,6,16,0.00
2014-12-8,74,63,57,63,60,57,98,90,59,30.08,29.98,8,5,11,0.00
2014-12-9,66,62,56,62,58,51,98,86,71,30.04,29.96,13,9,19,0.00
2014-12-10,64,53,51,52,41,39,93,62,41,30.15,30.04,13,8,19,0.00
2014-12-11,67,56,48,56,50,47,95,81,58,30.21,30.10,10,3,15,0.00
2014-12-12,66,58,49,56,48,40,95,72,38,30.24,30.12,10,6,14,0.00
2014-12-13,74,62,52,56,52,48,96,72,45,30.15,30.04,10,7,15,0.00
2014-12-14,73,60,53,59,50,45,95,68,45,30.10,30.01,7,5,10,0.00
2014-12-15,75,62,53,58,52,48,95,72,39,30.12,30.03,5,3,10,0.00
2014-12-16,76,62,54,60,56,54,97,82,49,30.18,30.10,7,4,10,0.00
2014-12-17,78,65,54,61,57,53,97,79,48,30.20,30.07,6,3,9,0.00
2014-12-18,74,64,58,60,58,55,97,81,56,30.17,30.06,9,4,13,0.00
2014-12-19,77,65,56,64,58,52,96,81,56,30.10,30.01,7,3,10,0.00
2014-12-20,78,62,58,64,58,57,97,82,60,30.09,30.01,9,3,13,0.00
2014-12-21,80,69,61,68,64,60,98,84,61,30.10,30.01,10,4,14,0.00
2014-12-22,82,73,64,70,67,63,97,83,61,30.03,29.92,10,5,16,0.00
2014-12-23,82,76,65,72,70,64,98,82,65,29.97,29.89,14,8,20,0.00
2014-12-24,83,77,72,74,72,70,93,84,67,29.96,29.89,15,9,21,0.00
2014-12-25,76,69,66,74,63,54,96,80,57,30.16,29.94,13,7,23,0.00
2014-12-26,74,67,63,71,63,59,98,87,79,30.19,30.12,10,6,14,0.00
2014-12-27,80,72,67,72,68,66,99,87,73,30.21,30.13,6,3,9,0.00
2014-12-28,82,72,64,71,68,64,98,86,66,30.17,30.08,9,4,13,0.00
2014-12-29,81,73,67,73,69,66,98,87,69,30.13,30.05,11,5,13,0.00
2014-12-30,84,74,67,70,68,65,98,85,52,30.20,30.08,6,3,9,0.00
2014-12-31,76,72,69,71,69,68,97,92,80,30.22,30.11,11,6,15,0.00
2015-1-1,76,72,70,70,70,68,98,93,79,30.21,30.12,7,4,10,0.00
2015-1-2,81,74,70,73,71,68,98,88,71,30.25,30.17,11,5,17,0.00